,,,PA_Meas_PMT16A,,PR_Meas_QMR101_102,,RH_Meas_QMH101,,SR_Meas_QMS101,,TA_Meas_QMH101,,GenWind,,GenWind,
date,time,status,PA,status,PR,status,RH,status,SR,status,TA,status,DirAvg,status,SpdAvg,
2010-11-15, 00:00:04,VALID,1000.68,VALID,0,VALID,91.0137,VALID,0,VALID,22.8232,VALID,71,VALID,0.430078,
2010-11-15, 00:01:04,VALID,1000.64,VALID,0,VALID,91.174,VALID,0,VALID,22.8037,VALID,71,VALID,0.4,
2010-11-15, 00:02:04,VALID,1000.59,VALID,0,VALID,91.3037,VALID,0,VALID,22.7647,VALID,71,VALID,0.680859,
2010-11-15, 00:03:04,VALID,1000.54,VALID,0,VALID,91.5326,VALID,0,VALID,22.7647,VALID,59,VALID,0.666406,
2010-11-15, 00:04:04,VALID,1000.49,VALID,0,VALID,91.7767,VALID,0,VALID,22.7842,VALID,37,VALID,0.704297,
2010-11-15, 00:05:04,VALID,1000.46,VALID,0,VALID,91.9293,VALID,0,VALID,22.7842,VALID,37,VALID,0.696875,
2010-11-15, 00:06:04,VALID,1000.41,VALID,0,VALID,92.0437,VALID,0,VALID,22.7825,VALID,37,VALID,0.706641,
2010-11-15, 00:07:04,VALID,1000.44,VALID,0,VALID,92.1353,VALID,0,VALID,22.8037,VALID,37,VALID,0.3125,
2010-11-15, 00:08:04,VALID,1000.4,VALID,0,VALID,92.1582,VALID,0,VALID,22.7842,VALID,37,VALID,0.00820312,
2010-11-15, 00:09:04,VALID,1000.37,VALID,0,VALID,92.1811,VALID,0,VALID,22.763,VALID,37,VALID,0,
2010-11-15, 00:10:04,VALID,1000.36,VALID,0,VALID,92.1734,VALID,0.112286,VALID,22.7257,VALID,37,VALID,0,
2010-11-15, 00:11:04,VALID,1000.34,VALID,0,VALID,92.1429,VALID,0,VALID,22.7079,VALID,37,VALID,0,
2010-11-15, 00:12:04,VALID,1000.31,VALID,0,VALID,92.1048,VALID,0,VALID,22.6477,VALID,37,VALID,0.0351563,
2010-11-15, 00:13:04,VALID,1000.3,VALID,0,VALID,92.12,VALID,0,VALID,22.6689,VALID,37,VALID,0.390234,
2010-11-15, 00:14:04,VALID,1000.31,VALID,0,VALID,92.1048,VALID,0,VALID,22.6087,VALID,55,VALID,0.69375,
2010-11-15, 00:15:04,VALID,1000.31,VALID,0,VALID,92.12,VALID,0,VALID,22.5696,VALID,55,VALID,0.688281,
2010-11-15, 00:16:04,VALID,1000.3,VALID,0,VALID,92.2574,VALID,0,VALID,22.6282,VALID,89,VALID,0.784375,
2010-11-15, 00:17:04,VALID,1000.25,VALID,0,VALID,92.3413,VALID,0,VALID,22.6672,VALID,96,VALID,0.976172,
2010-11-15, 00:18:04,VALID,1000.24,VALID,0,VALID,92.265,VALID,0,VALID,22.6672,VALID,96,VALID,0.971094,
2010-11-15, 00:19:04,VALID,1000.17,VALID,0,VALID,92.1658,VALID,0,VALID,22.6672,VALID,96,VALID,0.879297,
2010-11-15, 00:20:04,VALID,1000.11,VALID,0,VALID,92.0971,VALID,0,VALID,22.6477,VALID,96,VALID,0.8375,
2010-11-15, 00:21:04,VALID,1000.1,VALID,0,VALID,92.0361,VALID,0,VALID,22.6689,VALID,96,VALID,0.632031,
2010-11-15, 00:22:04,VALID,1000.07,VALID,0,VALID,91.9598,VALID,0,VALID,22.6282,VALID,96,VALID,0.355078,
2010-11-15, 00:23:04,VALID,1000.1,VALID,0,VALID,91.8835,VALID,0,VALID,22.5892,VALID,96,VALID,0.0476562,
2010-11-15, 00:24:04,VALID,1000.09,VALID,0,VALID,91.8148,VALID,0,VALID,22.5501,VALID,96,VALID,0.00976563,
2010-11-15, 00:25:04,VALID,1000.11,VALID,0,VALID,91.7538,VALID,0,VALID,22.5306,VALID,96,VALID,0.235547,
2010-11-15, 00:26:04,VALID,1000.12,VALID,0,VALID,91.7462,VALID,0,VALID,22.4916,VALID,96,VALID,0.316016,
2010-11-15, 00:27:04,VALID,1000.08,VALID,0,VALID,91.8148,VALID,0,VALID,22.5111,VALID,96,VALID,0.528125,
2010-11-15, 00:28:04,VALID,1000.1,VALID,0,VALID,91.9827,VALID,0,VALID,22.5111,VALID,83,VALID,0.563281,
2010-11-15, 00:29:04,VALID,1000.1,VALID,0,VALID,92.059,VALID,0,VALID,22.5111,VALID,33,VALID,0.761328,
2010-11-15, 00:30:04,VALID,1000.15,VALID,0,VALID,92.1124,VALID,0,VALID,22.5111,VALID,12,VALID,0.971484,
2010-11-15, 00:31:04,VALID,1000.13,VALID,0,VALID,92.0819,VALID,0,VALID,22.5111,VALID,15,VALID,0.917969,
2010-11-15, 00:32:04,VALID,1000.12,VALID,0,VALID,91.9445,VALID,0,VALID,22.4721,VALID,19,VALID,1.10352,
2010-11-15, 00:33:04,VALID,1000.14,VALID,0,VALID,91.7996,VALID,0,VALID,22.4526,VALID,19,VALID,1.14648,
2010-11-15, 00:34:04,VALID,1000.15,VALID,0,VALID,91.7233,VALID,0,VALID,22.4721,VALID,19,VALID,1.13242,
2010-11-15, 00:35:04,VALID,1000.14,VALID,0,VALID,91.6775,VALID,0,VALID,22.4721,VALID,19,VALID,0.742188,
2010-11-15, 00:36:04,VALID,1000.12,VALID,0,VALID,91.6394,VALID,0,VALID,22.4331,VALID,40,VALID,0.765234,
2010-11-15, 00:37:04,VALID,1000.1,VALID,0,VALID,91.7233,VALID,0,VALID,22.4543,VALID,70,VALID,0.913672,
2010-11-15, 00:38:04,VALID,1000.11,VALID,0,VALID,91.8759,VALID,0,VALID,22.4721,VALID,71,VALID,0.704297,
2010-11-15, 00:39:04,VALID,1000.11,VALID,0,VALID,91.9522,VALID,0,VALID,22.5306,VALID,83,VALID,0.844141,
2010-11-15, 00:40:04,VALID,1000.11,VALID,0,VALID,91.9445,VALID,0,VALID,22.5696,VALID,98,VALID,0.747266,
2010-11-15, 00:41:04,VALID,1000.1,VALID,0,VALID,91.8606,VALID,0,VALID,22.6282,VALID,105,VALID,0.401563,
2010-11-15, 00:42:04,VALID,1000.12,VALID,0,VALID,91.7767,VALID,0,VALID,22.6672,VALID,61,VALID,0.581641,
2010-11-15, 00:43:04,VALID,1000.14,VALID,0,VALID,91.6394,VALID,0,VALID,22.7062,VALID,83,VALID,0.701953,
2010-11-15, 00:44:04,VALID,1000.14,VALID,0,VALID,91.502,VALID,0,VALID,22.7452,VALID,77,VALID,0.482031,
2010-11-15, 00:45:04,VALID,1000.12,VALID,0,VALID,91.3342,VALID,0,VALID,22.7452,VALID,77,VALID,0.441797,
2010-11-15, 00:46:04,VALID,1000.13,VALID,0,VALID,91.1892,VALID,0,VALID,22.7435,VALID,55,VALID,0.482812,
2010-11-15, 00:47:04,VALID,1000.11,VALID,0,VALID,90.9985,VALID,0,VALID,22.7435,VALID,34,VALID,0.5875,
2010-11-15, 00:48:04,VALID,1000.12,VALID,0,VALID,90.823,VALID,0,VALID,22.7452,VALID,34,VALID,0.569531,
2010-11-15, 00:49:04,VALID,1000.1,VALID,0,VALID,90.8001,VALID,0,VALID,22.7257,VALID,343,VALID,0.594531,
2010-11-15, 00:50:04,VALID,1000.15,VALID,0,VALID,90.6933,VALID,0,VALID,22.6867,VALID,343,VALID,0.284375,
2010-11-15, 00:51:04,VALID,1000.15,VALID,0,VALID,90.617,VALID,0,VALID,22.6087,VALID,343,VALID,0.184375,
2010-11-15, 00:52:04,VALID,1000.14,VALID,0,VALID,90.8306,VALID,0,VALID,22.6087,VALID,343,VALID,0.301562,
2010-11-15, 00:53:04,VALID,1000.17,VALID,0,VALID,91.0214,VALID,0,VALID,22.5892,VALID,343,VALID,0.221484,
2010-11-15, 00:54:04,VALID,1000.14,VALID,0,VALID,91.2197,VALID,0.112286,VALID,22.6069,VALID,343,VALID,0.541016,
2010-11-15, 00:55:04,VALID,1000.16,VALID,0,VALID,91.4028,VALID,0.112286,VALID,22.646,VALID,343,VALID,0.83125,
2010-11-15, 00:56:04,VALID,1000.16,VALID,0,VALID,91.4563,VALID,0.112286,VALID,22.6655,VALID,343,VALID,1.05195,
2010-11-15, 00:57:04,VALID,1000.18,VALID,0,VALID,91.4334,VALID,0.112286,VALID,22.685,VALID,353,VALID,1.21094,
2010-11-15, 00:58:04,VALID,1000.18,VALID,0,VALID,91.3723,VALID,0.112286,VALID,22.7257,VALID,358,VALID,1.08633,
2010-11-15, 00:59:04,VALID,1000.18,VALID,0,VALID,91.2808,VALID,0.112286,VALID,22.724,VALID,358,VALID,1.05117,
2010-11-15, 01:00:04,VALID,1000.19,VALID,0,VALID,91.2503,VALID,0,VALID,22.7435,VALID,358,VALID,0.938281,
2010-11-15, 01:01:04,VALID,1000.18,VALID,0,VALID,91.1816,VALID,0.112286,VALID,22.7647,VALID,358,VALID,1.06719,
2010-11-15, 01:02:04,VALID,1000.16,VALID,0,VALID,91.0366,VALID,0,VALID,22.7435,VALID,2,VALID,1.16172,
2010-11-15, 01:03:04,VALID,1000.14,VALID,0,VALID,90.9603,VALID,0.112286,VALID,22.7435,VALID,16,VALID,1.26094,
2010-11-15, 01:04:04,VALID,1000.12,VALID,0,VALID,90.9374,VALID,0.112286,VALID,22.763,VALID,17,VALID,1.28828,
2010-11-15, 01:05:04,VALID,1000.1,VALID,0,VALID,90.8154,VALID,0.112286,VALID,22.763,VALID,24,VALID,1.49766,
2010-11-15, 01:06:04,VALID,1000.1,VALID,0,VALID,90.5331,VALID,0.112286,VALID,22.724,VALID,23,VALID,1.45352,
2010-11-15, 01:07:04,VALID,1000.08,VALID,0,VALID,90.4644,VALID,0.112286,VALID,22.7435,VALID,23,VALID,1.43906,
2010-11-15, 01:08:04,VALID,1000.06,VALID,0,VALID,90.411,VALID,0.112286,VALID,22.7418,VALID,26,VALID,1.24961,
2010-11-15, 01:09:04,VALID,1000.02,VALID,0,VALID,90.205,VALID,0,VALID,22.7452,VALID,26,VALID,1.24805,
2010-11-15, 01:10:04,VALID,999.983,VALID,0,VALID,90.1211,VALID,0,VALID,22.685,VALID,26,VALID,1.35312,
2010-11-15, 01:11:04,VALID,1000,VALID,0,VALID,90.1592,VALID,0,VALID,22.7257,VALID,32,VALID,0.96875,
2010-11-15, 01:12:04,VALID,1000.01,VALID,0,VALID,90.1363,VALID,0,VALID,22.7257,VALID,42,VALID,0.967969,
2010-11-15, 01:13:04,VALID,999.985,VALID,0,VALID,90.1211,VALID,0,VALID,22.7452,VALID,48,VALID,1.0457,
2010-11-15, 01:14:04,VALID,999.953,VALID,0,VALID,90.0371,VALID,0,VALID,22.7647,VALID,56,VALID,0.753906,
2010-11-15, 01:15:04,VALID,999.923,VALID,0,VALID,90.0143,VALID,0,VALID,22.8037,VALID,64,VALID,0.780078,
2010-11-15, 01:16:04,VALID,999.87,VALID,0,VALID,89.8617,VALID,0,VALID,22.8427,VALID,65,VALID,0.620703,
2010-11-15, 01:17:04,VALID,999.841,VALID,0,VALID,89.7167,VALID,0,VALID,22.8427,VALID,65,VALID,0.667188,
2010-11-15, 01:18:04,VALID,999.794,VALID,0,VALID,89.5717,VALID,0,VALID,22.8623,VALID,65,VALID,0.748438,
2010-11-15, 01:19:04,VALID,999.802,VALID,0,VALID,89.5336,VALID,0,VALID,22.8818,VALID,65,VALID,1.02773,
2010-11-15, 01:20:04,VALID,999.807,VALID,0,VALID,89.6175,VALID,0,VALID,22.9013,VALID,65,VALID,0.966797,
2010-11-15, 01:21:04,VALID,999.814,VALID,0,VALID,89.4726,VALID,0,VALID,22.9403,VALID,65,VALID,0.840234,
2010-11-15, 01:22:04,VALID,999.823,VALID,0,VALID,89.1216,VALID,0,VALID,22.9208,VALID,65,VALID,0.892578,
2010-11-15, 01:23:04,VALID,999.862,VALID,0,VALID,89.3047,VALID,0,VALID,22.9403,VALID,65,VALID,0.763672,
2010-11-15, 01:24:04,VALID,999.846,VALID,0,VALID,89.1903,VALID,0,VALID,22.8995,VALID,65,VALID,0.573438,
2010-11-15, 01:25:04,VALID,999.906,VALID,0,VALID,89.0148,VALID,0,VALID,22.8818,VALID,65,VALID,0.195703,
2010-11-15, 01:26:04,VALID,999.884,VALID,0,VALID,88.8851,VALID,0,VALID,22.8232,VALID,65,VALID,0.0648438,
2010-11-15, 01:27:04,VALID,999.913,VALID,0,VALID,89.2055,VALID,0,VALID,22.8037,VALID,65,VALID,0.349609,
2010-11-15, 01:28:04,VALID,999.93,VALID,0,VALID,89.7091,VALID,0,VALID,22.8037,VALID,65,VALID,0.575781,
2010-11-15, 01:29:04,VALID,999.908,VALID,0,VALID,89.9074,VALID,0,VALID,22.8037,VALID,65,VALID,0.641797,
2010-11-15, 01:30:04,VALID,999.945,VALID,0,VALID,89.8235,VALID,0,VALID,22.8037,VALID,65,VALID,0.693359,
2010-11-15, 01:31:04,VALID,999.956,VALID,0,VALID,89.7777,VALID,0,VALID,22.7647,VALID,72,VALID,0.766016,
2010-11-15, 01:32:04,VALID,999.946,VALID,0,VALID,90.0219,VALID,0,VALID,22.7647,VALID,100,VALID,0.798437,
2010-11-15, 01:33:04,VALID,999.947,VALID,0,VALID,90.3042,VALID,0,VALID,22.7647,VALID,100,VALID,0.758594,
2010-11-15, 01:34:04,VALID,999.958,VALID,0,VALID,90.4263,VALID,0,VALID,22.8055,VALID,100,VALID,0.679297,
2010-11-15, 01:35:04,VALID,999.956,VALID,0,VALID,90.4415,VALID,0,VALID,22.7842,VALID,100,VALID,0.581641,
2010-11-15, 01:36:04,VALID,999.983,VALID,0,VALID,90.5254,VALID,0,VALID,22.8037,VALID,100,VALID,0.452734,
2010-11-15, 01:37:04,VALID,1000.01,VALID,0,VALID,90.5254,VALID,0,VALID,22.8232,VALID,100,VALID,0.180469,
2010-11-15, 01:38:04,VALID,999.995,VALID,0,VALID,90.4491,VALID,0,VALID,22.8037,VALID,100,VALID,0,
2010-11-15, 01:39:04,VALID,999.984,VALID,0,VALID,90.3118,VALID,0,VALID,22.7842,VALID,100,VALID,0,
2010-11-15, 01:40:04,VALID,999.995,VALID,0,VALID,90.2355,VALID,0,VALID,22.7647,VALID,100,VALID,0,
2010-11-15, 01:41:04,VALID,999.952,VALID,0,VALID,90.2813,VALID,0,VALID,22.7452,VALID,100,VALID,0,
2010-11-15, 01:42:04,VALID,999.95,VALID,0,VALID,90.411,VALID,0,VALID,22.7257,VALID,100,VALID,0,
2010-11-15, 01:43:04,VALID,999.932,VALID,0,VALID,90.5331,VALID,0,VALID,22.7062,VALID,100,VALID,0,
2010-11-15, 01:44:04,VALID,999.937,VALID,0,VALID,90.5636,VALID,0,VALID,22.6672,VALID,100,VALID,0.00195313,
2010-11-15, 01:45:04,VALID,999.951,VALID,0,VALID,90.6017,VALID,0,VALID,22.6282,VALID,100,VALID,0.208594,
2010-11-15, 01:46:04,VALID,999.947,VALID,0,VALID,90.8611,VALID,0,VALID,22.6282,VALID,100,VALID,0.176563,
2010-11-15, 01:47:04,VALID,999.978,VALID,0,VALID,90.9985,VALID,0,VALID,22.6087,VALID,100,VALID,0.26875,
2010-11-15, 01:48:04,VALID,999.967,VALID,0,VALID,90.9451,VALID,0,VALID,22.5501,VALID,100,VALID,0.346094,
2010-11-15, 01:49:04,VALID,999.962,VALID,0,VALID,90.8764,VALID,0,VALID,22.5111,VALID,100,VALID,0.371094,
2010-11-15, 01:50:04,VALID,999.939,VALID,0,VALID,90.9374,VALID,0,VALID,22.4721,VALID,100,VALID,0.389844,
2010-11-15, 01:51:04,VALID,999.916,VALID,0,VALID,91.1587,VALID,0,VALID,22.4526,VALID,100,VALID,0.4375,
2010-11-15, 01:52:04,VALID,999.94,VALID,0,VALID,91.3342,VALID,0,VALID,22.4136,VALID,100,VALID,0.414453,
2010-11-15, 01:53:04,VALID,999.924,VALID,0,VALID,91.4181,VALID,0,VALID,22.3746,VALID,100,VALID,0.254297,
2010-11-15, 01:54:04,VALID,999.899,VALID,0,VALID,91.6012,VALID,0,VALID,22.3746,VALID,100,VALID,0.112109,
2010-11-15, 01:55:04,VALID,999.902,VALID,0,VALID,91.6699,VALID,0,VALID,22.3356,VALID,100,VALID,0,
2010-11-15, 01:56:04,VALID,999.898,VALID,0,VALID,91.7385,VALID,0,VALID,22.3161,VALID,100,VALID,0,
2010-11-15, 01:57:04,VALID,999.888,VALID,0,VALID,91.7996,VALID,0,VALID,22.2966,VALID,100,VALID,0,
2010-11-15, 01:58:04,VALID,999.846,VALID,0,VALID,91.8988,VALID,0,VALID,22.2966,VALID,100,VALID,0.185156,
2010-11-15, 01:59:04,VALID,999.849,VALID,0,VALID,92.0666,VALID,0,VALID,22.3161,VALID,100,VALID,0.300781,
2010-11-15, 02:00:04,VALID,999.836,VALID,0,VALID,92.1811,VALID,0,VALID,22.3551,VALID,100,VALID,0.503125,
2010-11-15, 02:01:04,VALID,999.81,VALID,0,VALID,92.2803,VALID,0,VALID,22.3746,VALID,100,VALID,0.417578,
2010-11-15, 02:02:04,VALID,999.789,VALID,0,VALID,92.2955,VALID,0,VALID,22.3941,VALID,100,VALID,0.448828,
2010-11-15, 02:03:04,VALID,999.772,VALID,0,VALID,92.3108,VALID,0,VALID,22.4331,VALID,100,VALID,0.371094,
2010-11-15, 02:04:04,VALID,999.77,VALID,0,VALID,92.2421,VALID,0,VALID,22.4916,VALID,100,VALID,0.333594,
2010-11-15, 02:05:04,VALID,999.746,VALID,0,VALID,92.1277,VALID,0,VALID,22.5111,VALID,100,VALID,0.219922,
2010-11-15, 02:06:04,VALID,999.713,VALID,0,VALID,91.9674,VALID,0,VALID,22.5306,VALID,100,VALID,0.0121094,
2010-11-15, 02:07:04,VALID,999.698,VALID,0,VALID,91.7996,VALID,0,VALID,22.5696,VALID,100,VALID,0.149219,
2010-11-15, 02:08:04,VALID,999.663,VALID,0,VALID,91.6394,VALID,0,VALID,22.5892,VALID,100,VALID,0.255469,
2010-11-15, 02:09:04,VALID,999.669,VALID,0,VALID,91.502,VALID,0,VALID,22.6282,VALID,100,VALID,0.0160156,
2010-11-15, 02:10:04,VALID,999.642,VALID,0,VALID,91.3189,VALID,0,VALID,22.6477,VALID,100,VALID,0.166797,
2010-11-15, 02:11:04,VALID,999.645,VALID,0,VALID,91.2045,VALID,0,VALID,22.6672,VALID,100,VALID,0.00429688,
2010-11-15, 02:12:04,VALID,999.613,VALID,0,VALID,91.0443,VALID,0,VALID,22.6867,VALID,100,VALID,0,
2010-11-15, 02:13:04,VALID,999.644,VALID,0,VALID,90.9298,VALID,0,VALID,22.6672,VALID,100,VALID,0,
2010-11-15, 02:14:04,VALID,999.627,VALID,0,VALID,90.8688,VALID,0,VALID,22.6672,VALID,100,VALID,0.263281,
2010-11-15, 02:15:04,VALID,999.668,VALID,0,VALID,90.8535,VALID,0,VALID,22.6672,VALID,100,VALID,0.291406,
2010-11-15, 02:16:04,VALID,999.661,VALID,0,VALID,90.7772,VALID,0,VALID,22.6867,VALID,100,VALID,0.280078,
2010-11-15, 02:17:04,VALID,999.671,VALID,0,VALID,90.6323,VALID,0,VALID,22.7062,VALID,100,VALID,0.298828,
2010-11-15, 02:18:04,VALID,999.651,VALID,0,VALID,90.5483,VALID,0,VALID,22.7257,VALID,100,VALID,0.132813,
2010-11-15, 02:19:04,VALID,999.629,VALID,0,VALID,90.4186,VALID,0,VALID,22.7452,VALID,100,VALID,0.123047,
2010-11-15, 02:20:04,VALID,999.61,VALID,0,VALID,90.3805,VALID,0,VALID,22.7664,VALID,100,VALID,0.135547,
2010-11-15, 02:21:04,VALID,999.605,VALID,0,VALID,90.1745,VALID,0,VALID,22.7062,VALID,100,VALID,0,
2010-11-15, 02:22:04,VALID,999.578,VALID,0,VALID,90.0829,VALID,0,VALID,22.6867,VALID,100,VALID,0.204688,
2010-11-15, 02:23:04,VALID,999.573,VALID,0,VALID,90.0677,VALID,0,VALID,22.6477,VALID,100,VALID,0.00273437,
2010-11-15, 02:24:04,VALID,999.546,VALID,0,VALID,90.2126,VALID,0,VALID,22.6477,VALID,100,VALID,0.172266,
2010-11-15, 02:25:04,VALID,999.589,VALID,0,VALID,90.0753,VALID,0,VALID,22.5892,VALID,100,VALID,0.329688,
2010-11-15, 02:26:04,VALID,999.624,VALID,0,VALID,90.2431,VALID,0,VALID,22.5111,VALID,100,VALID,0.484375,
2010-11-15, 02:27:04,VALID,999.635,VALID,0,VALID,90.3423,VALID,0,VALID,22.4721,VALID,93,VALID,0.648047,
2010-11-15, 02:28:04,VALID,999.623,VALID,0,VALID,90.5178,VALID,0,VALID,22.4331,VALID,69,VALID,0.764844,
2010-11-15, 02:29:04,VALID,999.612,VALID,0,VALID,90.6628,VALID,0,VALID,22.4526,VALID,69,VALID,0.88125,
2010-11-15, 02:30:04,VALID,999.601,VALID,0,VALID,90.617,VALID,0,VALID,22.5111,VALID,69,VALID,0.749609,
2010-11-15, 02:31:04,VALID,999.585,VALID,0,VALID,90.4491,VALID,0,VALID,22.5501,VALID,69,VALID,0.758203,
2010-11-15, 02:32:04,VALID,999.595,VALID,0,VALID,90.4263,VALID,0,VALID,22.6087,VALID,69,VALID,0.873828,
2010-11-15, 02:33:04,VALID,999.596,VALID,0,VALID,90.3271,VALID,0,VALID,22.6087,VALID,69,VALID,0.869141,
2010-11-15, 02:34:04,VALID,999.607,VALID,0,VALID,90.2813,VALID,0,VALID,22.6282,VALID,69,VALID,0.811328,
2010-11-15, 02:35:04,VALID,999.593,VALID,0,VALID,90.3728,VALID,0,VALID,22.6282,VALID,69,VALID,0.664063,
2010-11-15, 02:36:04,VALID,999.627,VALID,0,VALID,90.5026,VALID,0,VALID,22.6282,VALID,69,VALID,0.587109,
2010-11-15, 02:37:04,VALID,999.592,VALID,0,VALID,90.5788,VALID,0,VALID,22.6069,VALID,69,VALID,0.473047,
2010-11-15, 02:38:04,VALID,999.568,VALID,0,VALID,90.3652,VALID,0,VALID,22.5892,VALID,69,VALID,0.409375,
2010-11-15, 02:39:04,VALID,999.569,VALID,0,VALID,90.4186,VALID,0,VALID,22.5696,VALID,69,VALID,0.371094,
2010-11-15, 02:40:04,VALID,999.556,VALID,0,VALID,90.6094,VALID,0,VALID,22.5501,VALID,69,VALID,0.369531,
2010-11-15, 02:41:04,VALID,999.548,VALID,0,VALID,90.7543,VALID,0,VALID,22.5501,VALID,69,VALID,0.33125,
2010-11-15, 02:42:04,VALID,999.531,VALID,0,VALID,90.884,VALID,0,VALID,22.5289,VALID,69,VALID,0.41875,
2010-11-15, 02:43:04,VALID,999.546,VALID,0,VALID,90.9298,VALID,0,VALID,22.5696,VALID,69,VALID,0.477344,
2010-11-15, 02:44:04,VALID,999.543,VALID,0,VALID,90.9756,VALID,0,VALID,22.5501,VALID,69,VALID,0.328125,
2010-11-15, 02:45:04,VALID,999.566,VALID,0,VALID,90.9909,VALID,0,VALID,22.5696,VALID,69,VALID,0.343359,
2010-11-15, 02:46:04,VALID,999.554,VALID,0,VALID,90.9527,VALID,0,VALID,22.5501,VALID,69,VALID,0.380469,
2010-11-15, 02:47:04,VALID,999.538,VALID,0,VALID,90.8917,VALID,0,VALID,22.5501,VALID,69,VALID,0.219141,
2010-11-15, 02:48:04,VALID,999.572,VALID,0,VALID,90.6323,VALID,0,VALID,22.4916,VALID,69,VALID,0.357812,
2010-11-15, 02:49:04,VALID,999.579,VALID,0,VALID,90.6933,VALID,0,VALID,22.4526,VALID,68,VALID,0.710547,
2010-11-15, 02:50:04,VALID,999.559,VALID,0,VALID,91.0595,VALID,0,VALID,22.4721,VALID,38,VALID,0.886719,
2010-11-15, 02:51:04,VALID,999.577,VALID,0,VALID,91.38,VALID,0,VALID,22.4916,VALID,38,VALID,1.03281,
2010-11-15, 02:52:04,VALID,999.597,VALID,0,VALID,91.6394,VALID,0,VALID,22.5111,VALID,38,VALID,0.917188,
2010-11-15, 02:53:04,VALID,999.595,VALID,0,VALID,91.6928,VALID,0,VALID,22.4721,VALID,38,VALID,0.925391,
2010-11-15, 02:54:04,VALID,999.628,VALID,0,VALID,91.6088,VALID,0,VALID,22.3941,VALID,38,VALID,0.696875,
2010-11-15, 02:55:04,VALID,999.626,VALID,0,VALID,91.4868,VALID,0,VALID,22.3144,VALID,38,VALID,0.676953,
2010-11-15, 02:56:04,VALID,999.651,VALID,0,VALID,91.4715,VALID,0,VALID,22.2966,VALID,38,VALID,0.619922,
2010-11-15, 02:57:04,VALID,999.666,VALID,0,VALID,91.5097,VALID,0,VALID,22.2576,VALID,38,VALID,0.550391,
2010-11-15, 02:58:04,VALID,999.649,VALID,0,VALID,91.5707,VALID,0,VALID,22.2186,VALID,38,VALID,0.692969,
2010-11-15, 02:59:04,VALID,999.606,VALID,0,VALID,91.6546,VALID,0,VALID,22.1795,VALID,38,VALID,0.66875,
2010-11-15, 03:00:04,VALID,999.599,VALID,0,VALID,91.8606,VALID,0,VALID,22.1584,VALID,38,VALID,0.628516,
2010-11-15, 03:01:04,VALID,999.55,VALID,0,VALID,92.0132,VALID,0,VALID,22.1584,VALID,38,VALID,0.583594,
2010-11-15, 03:02:04,VALID,999.541,VALID,0,VALID,92.1277,VALID,0,VALID,22.1795,VALID,38,VALID,0.637891,
2010-11-15, 03:03:04,VALID,999.485,VALID,0,VALID,92.265,VALID,0,VALID,22.199,VALID,38,VALID,0.673828,
2010-11-15, 03:04:04,VALID,999.517,VALID,0,VALID,92.3184,VALID,0,VALID,22.2186,VALID,38,VALID,0.524609,
2010-11-15, 03:05:04,VALID,999.524,VALID,0,VALID,92.3718,VALID,0,VALID,22.2186,VALID,38,VALID,0.504297,
2010-11-15, 03:06:04,VALID,999.509,VALID,0,VALID,92.3794,VALID,0,VALID,22.199,VALID,38,VALID,0.384375,
2010-11-15, 03:07:04,VALID,999.517,VALID,0,VALID,92.3871,VALID,0,VALID,22.1795,VALID,38,VALID,0.242188,
2010-11-15, 03:08:04,VALID,999.531,VALID,0,VALID,92.3489,VALID,0,VALID,22.1405,VALID,38,VALID,0.112109,
2010-11-15, 03:09:04,VALID,999.519,VALID,0,VALID,92.3718,VALID,0,VALID,22.16,VALID,38,VALID,0.0339844,
2010-11-15, 03:10:04,VALID,999.544,VALID,0,VALID,92.4176,VALID,0,VALID,22.16,VALID,38,VALID,0,
2010-11-15, 03:11:04,VALID,999.519,VALID,0,VALID,92.4481,VALID,0,VALID,22.121,VALID,38,VALID,0,
2010-11-15, 03:12:04,VALID,999.528,VALID,0,VALID,92.4328,VALID,0,VALID,22.1015,VALID,38,VALID,0.0609375,
2010-11-15, 03:13:04,VALID,999.532,VALID,0,VALID,92.4405,VALID,0,VALID,22.0625,VALID,38,VALID,0.108594,
2010-11-15, 03:14:04,VALID,999.514,VALID,0,VALID,92.4786,VALID,0,VALID,22.043,VALID,38,VALID,0.196094,
2010-11-15, 03:15:04,VALID,999.548,VALID,0,VALID,92.5244,VALID,0,VALID,22.0625,VALID,38,VALID,0.170703,
2010-11-15, 03:16:04,VALID,999.508,VALID,0,VALID,92.5931,VALID,0,VALID,22.082,VALID,38,VALID,0.2625,
2010-11-15, 03:17:04,VALID,999.484,VALID,0,VALID,92.677,VALID,0,VALID,22.082,VALID,38,VALID,0.320313,
2010-11-15, 03:18:04,VALID,999.464,VALID,0,VALID,92.7304,VALID,0,VALID,22.121,VALID,38,VALID,0.444531,
2010-11-15, 03:19:04,VALID,999.449,VALID,0,VALID,92.7838,VALID,0,VALID,22.121,VALID,38,VALID,0.552344,
2010-11-15, 03:20:05,VALID,999.453,VALID,0,VALID,92.8143,VALID,0,VALID,22.1405,VALID,38,VALID,0.333203,
2010-11-15, 03:21:05,VALID,999.442,VALID,0,VALID,92.8067,VALID,0,VALID,22.1405,VALID,38,VALID,0.247266,
2010-11-15, 03:22:05,VALID,999.406,VALID,0,VALID,92.7914,VALID,0,VALID,22.16,VALID,38,VALID,0.152344,
2010-11-15, 03:23:05,VALID,999.399,VALID,0,VALID,92.7762,VALID,0,VALID,22.121,VALID,38,VALID,0,
2010-11-15, 03:24:05,VALID,999.369,VALID,0,VALID,92.7228,VALID,0,VALID,22.121,VALID,38,VALID,0.364453,
2010-11-15, 03:25:05,VALID,999.373,VALID,0,VALID,92.6923,VALID,0,VALID,22.121,VALID,135,VALID,0.722266,
2010-11-15, 03:26:05,VALID,999.366,VALID,0,VALID,92.6694,VALID,0,VALID,22.16,VALID,159,VALID,0.889063,
2010-11-15, 03:27:05,VALID,999.404,VALID,0,VALID,92.6617,VALID,0,VALID,22.2186,VALID,152,VALID,0.860937,
2010-11-15, 03:28:05,VALID,999.434,VALID,0,VALID,92.6007,VALID,0,VALID,22.2966,VALID,143,VALID,0.863281,
2010-11-15, 03:29:05,VALID,999.439,VALID,0,VALID,92.5091,VALID,0,VALID,22.3534,VALID,143,VALID,0.616016,
2010-11-15, 03:30:05,VALID,999.473,VALID,0,VALID,92.3642,VALID,0,VALID,22.4331,VALID,125,VALID,0.98125,
2010-11-15, 03:31:05,VALID,999.461,VALID,0,VALID,92.1582,VALID,0,VALID,22.4916,VALID,118,VALID,0.870703,
2010-11-15, 03:32:05,VALID,999.512,VALID,0,VALID,91.8606,VALID,0,VALID,22.5111,VALID,118,VALID,0.803125,
2010-11-15, 03:33:05,VALID,999.507,VALID,0,VALID,91.4868,VALID,0,VALID,22.5111,VALID,118,VALID,0.623828,
2010-11-15, 03:34:05,VALID,999.509,VALID,0,VALID,91.1968,VALID,0,VALID,22.5519,VALID,118,VALID,0.727344,
2010-11-15, 03:35:05,VALID,999.502,VALID,0,VALID,90.9832,VALID,0,VALID,22.5501,VALID,118,VALID,0.634766,
2010-11-15, 03:36:05,VALID,999.462,VALID,0,VALID,90.8917,VALID,0,VALID,22.5501,VALID,118,VALID,0.36875,
2010-11-15, 03:37:05,VALID,999.427,VALID,0,VALID,90.7849,VALID,0,VALID,22.5714,VALID,118,VALID,0.1,
2010-11-15, 03:38:05,VALID,999.421,VALID,0,VALID,90.678,VALID,0,VALID,22.5306,VALID,118,VALID,0.207813,
2010-11-15, 03:39:05,VALID,999.407,VALID,0,VALID,90.5712,VALID,0,VALID,22.5111,VALID,118,VALID,0.308203,
2010-11-15, 03:40:05,VALID,999.458,VALID,0,VALID,90.5636,VALID,0,VALID,22.5111,VALID,118,VALID,0.327344,
2010-11-15, 03:41:05,VALID,999.521,VALID,0,VALID,90.3728,VALID,0,VALID,22.4721,VALID,118,VALID,0.309375,
2010-11-15, 03:42:05,VALID,999.574,VALID,0,VALID,90.3347,VALID,0,VALID,22.4526,VALID,118,VALID,0.285547,
2010-11-15, 03:43:05,VALID,999.571,VALID,0,VALID,90.4491,VALID,0,VALID,22.4136,VALID,118,VALID,0.475391,
2010-11-15, 03:44:05,VALID,999.587,VALID,0,VALID,90.5788,VALID,0,VALID,22.4136,VALID,118,VALID,0.198047,
2010-11-15, 03:45:05,VALID,999.589,VALID,0,VALID,90.6399,VALID,0,VALID,22.3746,VALID,118,VALID,0.137891,
2010-11-15, 03:46:05,VALID,999.58,VALID,0,VALID,90.7543,VALID,0,VALID,22.3551,VALID,118,VALID,0.119141,